Location: Holyhead Bay
(53.3667°N, 4.6667°W)
Time: 19:28:19
(UTC+00:00)

Meteor 2-12 Rocket - Pass Details

Date: 24 November 2020
Orbit: 935 x 958 km, 82.5° (Epoch: 17 January)

Event Time Altitude Azimuth Distance (km) Brightness Sun altitude
Rises 17:56:18 0° 348° (NNW) 3,654 7.5 -15.2°
Reaches altitude 10° 17:58:49 10° 349° (NNW) 2,703 6.8 -15.5°
Maximum altitude 18:05:02 90° 133° (SE) 964 4.4 -16.4°
Drops below altitude 10° 18:11:10 10° 171° (S) 2,673 6.8 -17.3°
Sets 18:13:39 0° 171° (S) 3,611 7.5 -17.7°
